SKYTERRA 1

Last updated on Tue Sep 22 2026 00:03:12 GMT+0000 (Coordinated Universal Time)

1 37218U 10061A 26264.53909537 -.00000119 00000+0 00000+0 0 9990 2 37218 5.3271 50.6209 0001051 159.1038 243.4970 1.00272076 58161
UTC large
Height (km)
Speed (km/s)
/
Latitude / Longitude
Inclination (degrees)
Orbital Period (minutes)
Azimuth
Elevation
Range (km)
Doppler Factor

Next 0 passes for location: London (51.5072 / 0.1276)

No passes found over London.
SKYTERRA 1